Location: Hannover
(52.3723°N, 9.7339°E)
Time: 08:41:38
(UTC+01:00)

N. Korean satellite - Visible Passes

Search period start: 16 January 2018 00:00
Search period end: 26 January 2018 00:00
Orbit: 459 x 515 km, 97.2° (Epoch: 15 January)

Date Brightness Start Highest point End Pass type
(mag) Time Alt. Az. Time Alt. Az. Time Alt. Az.
16 Jan 9.0 06:30:13 10° NE 06:33:08 24° E 06:35:59 10° SSE visible
16 Jan 7.6 17:11:59 10° ESE 17:14:59 25° ENE 17:17:58 10° N visible
16 Jan 8.5 18:45:07 10° SSW 18:48:24 32° W 18:51:40 10° NNW visible
17 Jan 9.8 06:07:19 10° NE 06:09:16 14° E 06:11:11 10° ESE visible
17 Jan 6.6 07:39:43 10° N 07:43:07 52° WNW 07:46:28 10° SSW visible
17 Jan 7.2 18:21:05 10° S 18:24:40 58° W 18:28:12 10° NNW visible
18 Jan 6.6 07:15:59 10° NNE 07:19:28 82° E 07:22:55 10° SSW visible
18 Jan 6.4 17:57:23 10° SSE 18:00:59 76° ENE 18:04:33 10° N visible
18 Jan 10.2 19:33:53 10° WSW 19:34:58 11° W 19:36:03 10° WNW visible
19 Jan 7.8 06:52:25 10° NNE 06:55:45 42° E 06:59:03 10° S visible
19 Jan 6.9 17:33:59 10° SE 17:37:22 41° ENE 17:40:44 10° N visible
19 Jan 9.5 19:08:27 10° SW 19:11:04 19° W 19:13:41 10° NW visible
20 Jan 9.1 06:29:05 10° NE 06:31:57 24° E 06:34:48 10° SSE visible
20 Jan 8.5 18:43:59 10° SSW 18:47:15 32° W 18:50:29 10° NNW visible
21 Jan 9.9 06:06:12 10° ENE 06:08:04 14° E 06:09:56 10° ESE visible
21 Jan 7.1 18:19:58 10° S 18:23:30 59° W 18:27:00 10° NNW visible
22 Jan 6.6 07:14:48 10° NNE 07:18:17 80° ESE 07:21:44 10° S visible
22 Jan 6.4 17:56:15 10° SSE 17:59:49 74° ENE 18:03:20 10° N visible
22 Jan 10.2 19:32:42 10° WSW 19:33:47 11° W 19:34:52 10° WNW visible
23 Jan 7.9 06:51:14 10° NNE 06:54:33 41° E 06:57:51 10° S visible
23 Jan 7.0 17:32:51 10° SE 17:36:11 40° ENE 17:39:31 10° N visible
23 Jan 9.5 19:07:16 10° SW 19:09:53 19° W 19:12:28 10° NW visible
24 Jan 9.1 06:27:53 10° NE 06:30:44 23° E 06:33:34 10° SSE visible
24 Jan 8.4 18:42:48 10° SSW 18:46:02 33° W 18:49:16 10° NNW visible
25 Jan 9.9 06:05:01 10° ENE 06:06:51 14° E 06:08:40 10° ESE visible
25 Jan 7.1 18:18:47 10° S 18:22:17 60° W 18:25:46 10° NNW visible
